Regional Weather Roundup
Issued by NWS Cleveland, OH

Home | Current Version | Previous Version | Graphics & Text | Print | Product List | Glossary On
Versions: 1 2 3 4 5 6 7 8 9 10 11 12 13 14 15 16 17 18 19 20 21 22 23 24 25 26 27 28 29 30 31 32 33 34 35 36 37 38 39 40 41 42 43 44 45 46 47 48 49 50
127
ASUS41 KCLE 231412
RWRCLE
OHIO REGIONAL WEATHER ROUNDUP
NATIONAL WEATHER SERVICE WILMINGTON, OH
1000 AM EDT MON APR 23 2018

NOTE: "FAIR" INDICATES FEW OR NO CLOUDS BELOW 12,000 FEET WITH NO
SIGNIFICANT WEATHER AND/OR OBSTRUCTIONS TO VISIBILITY.

OHZ001>008-015>018-024>027-034-035-043-044-231500-
   NORTHWEST OHIO

CITY           SKY/WX    TMP DP  RH WIND       PRES   REMARKS
DEFIANCE       FAIR      55  38  52 E10       30.20
FINDLAY        FAIR      60  39  45 SE13      30.19F
TOLEDO EXPRESS FAIR      57  40  52 E10       30.22F
TOLEDO EXEC    FAIR      57  40  52 E8        30.23F
LIMA           FAIR      58  41  53 SE14G22   30.17F
$$

OHZ009>014-019>023-028>033-038-089-231500-
   NORTHEAST OHIO

CITY           SKY/WX    TMP DP  RH WIND       PRES   REMARKS
CLE-HOPKINS    PTSUNNY   63  41  44 SE14      30.27F
CLE-LAKEFRONT  FAIR      61  38  42 SE13      30.24F
CUY CO. ARPT   PTSUNNY   64  41  42 SE12G21   30.27F
LORAIN-ELYRIA  FAIR      60  38  43 SE8       30.25S
ASHTABULA      FAIR      59  36  42 S14       30.31S
AKRON-CANTON   FAIR      61  41  47 SE12      30.26F
WOOSTER        FAIR      60  42  51 SE14      30.26F
MANSFIELD      FAIR      60  41  49 SE13      30.23F
YOUNGSTOWN     PTSUNNY   59  38  45 SE10      30.30S
$$

OHZ042-051>053-060>062-070>072-077>081-231500-
  SOUTHWEST OHIO

CITY           SKY/WX    TMP DP  RH WIND       PRES   REMARKS
CINC-COVINGTON LGT RAIN  57  44  62 E8        30.11S
CINC-LUNKEN    LGT RAIN  60  45  57 E7        30.12F
HAMILTON       FAIR      62  44  51 E8        30.13F
DAYTON         PTSUNNY   62  44  51 SE20G30   30.15F
WRIGHT-PAT AFB FAIR      62  42  48 E15G22    30.14F
DAYTON GENERAL FAIR      61  42  49 E13       30.12F
WILMINGTON     FAIR      60  45  57 E12G17    30.14F
$$

OHZ036-037-039>041-045>050-054>059-063>069-073>076-082>088-231500-
  CENTRAL AND SOUTHEAST OHIO

CITY           SKY/WX    TMP DP  RH WIND       PRES   REMARKS
COLUMBUS       PTSUNNY   62  41  46 E17G23    30.18F
OSU AIRPORT    FAIR      63  42  46 SE15G23   30.17F
BOLTON FIELD   SUNNY     61  43  51 SE12      30.19S
RICKENBACK AFB FAIR      61  42  49 SE16G22   30.18S
NEWARK         FAIR      63  42  46 E15       30.19F
MARION         FAIR      60  41  49 SE15      30.21S
LANCASTER      FAIR      62  43  49 SE15      30.20F
ZANESVILLE     FAIR      62  42  47 SE8       30.23S
NEW PHILLY     FAIR      61  42  49 SE12      30.26F
$$




USA.gov is the U.S. government's official web portal to all federal, state and local government web resources and services.